Location: Grand Mazuras
(45.9128°N, 1.7636°E)
Time: 06:25:45
(UTC+00:00)

Aureole 1 Rocket - Pass Details

Date: 18 April 2021
Orbit: 379 x 1372 km, 73.9° (Epoch: 15 May)

Event Time Altitude Azimuth Distance (km) Brightness Sun altitude
Exits shadow 22:38:05 45° 36° (NE) 1,088 4.4 -30.5°
Drops below altitude 10° 22:41:22 10° 25° (NNE) 2,182 6.3 -30.7°
Sets 22:43:23 0° 24° (NNE) 2,970 7.2 -30.9°
